Location: Newark
(39.6867°N, 100.6772°W)
Time: 20:38:57
(UTC+00:00)

Vanguard 1 Rocket - Pass Details

Date: 30 October 2019
Orbit: 651 x 4226 km, 34.3° (Epoch: 18 November)

Event Time Altitude Azimuth Distance (km) Brightness Sun altitude
Rises 23:54:33 0° 275° (W) 7,902 13.8 -2.7°
Reaches altitude 10° 00:05:39 10° 252° (WSW) 7,334 13.9 -4.7°
Maximum altitude 00:13:54 13° 232° (SW) 7,196 13.1 -6.3°
Drops below altitude 10° 00:22:15 10° 213° (SSW) 7,296 12.7 -7.9°
Sets 00:33:42 0° 189° (S) 7,791 12.4 -10.0°
